Flag for U.S.A. Weather past 2 weeks in Lakewood, Colorado, U.S.A.

Now
55 °F

Passing clouds.


Feels Like: 54 °F
Forecast: 51 / 78 °F
Wind: 5 mph from South

Location: Centennial Airport

Current Time: Aug 28, 2014 at 9:29:40 PM

Latest Report: Aug 28, 2014 at 8:53 PM


Visibility: 10 mi

Pressure: 30.04 "Hg

Humidity: 77%

Dew point: 48 °F

Location of LakewoodLocation

Historic Weather in Lakewood — Graph

°F

Lakewood temperature yesterday

Maximum temperature yesterday: 76 °F (at 2:53 PM)
Minimum temperature yesterday: 54 °F (at 10:53 PM)
Average temperature yesterday: 64 °F

Past Weeks' High & Low Weather Summary

 TemperatureHumidityPressure
High88 °F (Aug 17, 1:53 PM)93% (Aug 23, 2:53 AM)30.15 "Hg (Aug 23, 2:53 AM)
Low50 °F (Aug 28, 4:53 AM)14% (Aug 17, 12:53 PM)29.70 "Hg (Aug 19, 2:53 PM)
Average68 °F54%29.93 "Hg
* Reported Aug 13 7:53 PM — Aug 28 7:53 PM, Lakewood, Weather by CustomWeather, © 2014

Note: Actual official high and low records may vary slightly from our data, if they occured in-between our weather recording intervals... More about our weather records

Advertising

Lakewood weather history for previous 24 hours

 ConditionsComfort  
Time TempWeatherWind HumidityBarometerVisibility
7:53 PM
Aug 28
57 °FScattered clouds.9 mph74%30.05 "Hg10 mi
6:53 PM61 °FPartly sunny.6 mph62%30.06 "Hg10 mi
5:53 PM60 °FBroken clouds.7 mph69%30.10 "Hg10 mi
4:53 PM58 °FLight rain. Broken clouds.6 mph75%30.11 "Hg10 mi
3:53 PM54 °FLight rain. Fog.14 mph86%30.14 "Hg4 mi
2:53 PM62 °FThunderstorms. Partly sunny.7 mph67%30.09 "Hg10 mi
1:53 PM67 °FThunderstorms. Broken clouds.18 mph49%30.04 "Hg10 mi
12:53 PM71 °FBroken clouds.14 mph36%30.01 "Hg10 mi
11:53 AM71 °FBroken clouds.7 mph34%30.01 "Hg10 mi
10:53 AM69 °FPartly sunny.6 mph36%30.02 "Hg10 mi
9:53 AM66 °FPartly sunny.7 mph42%30.03 "Hg10 mi
8:53 AM62 °FPassing clouds.8 mph54%30.02 "Hg10 mi
7:53 AM57 °FPassing clouds.3 mph69%30.02 "Hg10 mi
6:53 AM53 °FPassing clouds.No wind77%30.02 "Hg10 mi
5:53 AM50 °FPassing clouds.5 mph86%30.01 "Hg10 mi
4:53 AM50 °FPassing clouds.6 mph86%30.00 "Hg10 mi
3:53 AM51 °FPassing clouds.6 mph86%30.01 "Hg10 mi
2:53 AM51 °FPassing clouds.5 mph86%30.01 "Hg10 mi
1:53 AM52 °FPassing clouds.8 mph86%30.02 "Hg10 mi
12:53 AM53 °FPassing clouds.3 mph86%30.03 "Hg10 mi
11:53 PM
Aug 27
54 °FPassing clouds.9 mph83%30.04 "Hg10 mi
10:53 PM54 °FPassing clouds.7 mph83%30.05 "Hg10 mi
9:53 PM56 °FPassing clouds.6 mph81%30.05 "Hg10 mi
Weather by CustomWeather, © 2014

See weather overviewHow to use our weather pages